Flag for Germany Weather past 2 weeks in Landau in der Pfalz, Rhineland-Palatinate, Germany

Now
97 °F

Sunny.


Feels Like: 96 °F
Forecast: 67 / 98 °F
Wind: 3 mph from North

Location: Baden Wurttemberg - Neuostheim

Current Time: Jul 3, 2015 at 5:39:18 PM

Latest Report: Jul 3, 2015 at 4:50 PM


Visibility: 10 mi

Pressure: 30.15 "Hg

Humidity: 27%

Dew point: 57 °F

Location of Landau in der PfalzLocation

Historic Weather in Landau in der Pfalz — Graph

°F

Landau in der Pfalz temperature yesterday

Maximum temperature yesterday: 97 °F (at 4:50 PM)
Minimum temperature yesterday: 72 °F (at 5:50 AM)
Average temperature yesterday: 88 °F

Past Weeks' High & Low Weather Summary

 TemperatureHumidityPressure
High97 °F (Jul 2, 4:50 PM)100% (Jun 22, 5:50 AM)30.21 "Hg (Jun 22, 5:50 AM)
Low50 °F (Jun 23, 5:20 AM)24% (Jul 1, 2:50 PM)29.74 "Hg (Jun 22, 9:20 PM)
Average70 °F58%30.09 "Hg
* Reported Jun 18 4:20 PM — Jul 3 4:20 PM, Landau in der Pfalz, Weather by CustomWeather, © 2015

Note: Actual official high and low records may vary slightly from our data, if they occured in-between our weather recording intervals... More about our weather records

Advertising

Landau in der Pfalz weather history for previous 24 hours

 ConditionsComfort  
Time TempWeatherWind HumidityBarometerVisibility
4:20 PM
Fri, Jul 3
97 °FPassing clouds.6 mph30%30.15 "HgN/A
3:50 PM97 °FSunny.3 mph27%30.18 "Hg10 mi
3:20 PM95 °FSunny.5 mph30%30.18 "Hg10 mi
2:50 PM93 °FSunny.3 mph34%30.18 "Hg10 mi
2:20 PM95 °FSunny.2 mph34%30.18 "Hg10 mi
1:50 PM93 °FSunny.3 mph41%30.18 "Hg10 mi
1:20 PM90 °FSunny.3 mph46%30.21 "Hg10 mi
12:50 PM90 °FSunny.3 mph46%30.21 "Hg10 mi
12:20 PM88 °FSunny.5 mph49%30.21 "Hg10 mi
11:50 AM86 °FPassing clouds.6 mph55%30.21 "HgN/A
11:20 AM86 °FPassing clouds.6 mph55%30.21 "HgN/A
10:50 AM84 °FPassing clouds.5 mph55%30.21 "HgN/A
10:20 AM82 °FPassing clouds.5 mph58%30.21 "HgN/A
9:50 AM82 °FPassing clouds.6 mph58%30.21 "HgN/A
9:20 AM81 °FPassing clouds.6 mph58%30.21 "HgN/A
8:50 AM79 °FSunny.6 mph61%30.21 "Hg10 mi
8:20 AM77 °FPassing clouds.6 mph65%30.21 "HgN/A
7:50 AM79 °FSunny.3 mph61%30.18 "Hg10 mi
7:20 AM79 °FSunny.2 mph61%30.18 "Hg10 mi
6:50 AM77 °FSunny.2 mph65%30.18 "Hg10 mi
6:20 AM77 °FClear.2 mph65%30.18 "Hg10 mi
5:50 AM73 °FClear.1 mph69%30.15 "Hg10 mi
9:20 PM
Thu, Jul 2
90 °FSunny.2 mph38%30.09 "Hg10 mi
8:50 PM91 °FSunny.3 mph36%30.09 "Hg10 mi
8:20 PM93 °FSunny.5 mph30%30.07 "Hg10 mi
7:50 PM93 °FPassing clouds.5 mph30%30.07 "HgN/A
7:20 PM95 °FSunny.7 mph28%30.07 "Hg10 mi
6:50 PM95 °FPassing clouds.6 mph28%30.07 "HgN/A
6:20 PM95 °FPassing clouds.8 mph28%30.07 "HgN/A
5:50 PM97 °FPassing clouds.7 mph27%30.07 "HgN/A
5:20 PM95 °FPassing clouds.8 mph26%30.07 "HgN/A
Weather by CustomWeather, © 2015

See weather overviewHow to use our weather pages